Weather History for White Plains, NY

Change the Weather History Date:

Sunday, May 20, 2012

  Actual Average Record
Temperature  
Mean Temperature 64 °F -  
Max Temperature 77 °F 65 °F 86 °F (1975)
Min Temperature 54 °F 47 °F 35 °F (2002)
Growing Degree Days 14 (Base 50)    
Moisture  
Dew Point 41 °F    
Average Humidity 46    
Maximum Humidity 86    
Minimum Humidity 15    
Precipitation  
Precipitation 0.00 in - - ()
Sea Level Pressure  
Sea Level Pressure 30.21 in    
Wind  
Wind Speed 5 mph (ENE)    
Max Wind Speed 13 mph    
Max Gust Speed 22 mph    
Visibility 10 miles    
Events      
Averages and records for this station are not official NWS values.
T = Trace of Precipitation, MM = Missing Value Source: NWS Daily Summary

Daily Weather History Graph

Daily Weather History Graph

Search for Another Location

Airport:

Trip Planner

Search our weather history database for the weather conditions in past years. The results will help you decide how hot, cold, wet, or windy it might be!

Date:

Astronomy

May. 20, 2012 Rise Set
Actual Time 5:32 AM EDT 8:11 PM EDT
Civil Twilight 5:00 AM EDT 8:43 PM EDT
Nautical Twilight 4:20 AM EDT 9:23 PM EDT
Astronomical Twilight 3:35 AM EDT 10:08 PM EDT
Moon 5:10 AM EDT (5/20) 8:07 PM EDT (5/20)
Length of Visible Light 15h 43m
Length of Day
14h 39m
Waning Crescent, 0% of the Moon is Illuminated
May 20
Waning Crescent
May 20
New
May 28
First Quarter
Jun 4
Full
Jun 11
Last Quarter

Hourly Weather History & Observations

Time (EDT) Temp. Dew Point Humidity Pressure Visibility Wind Dir Wind Speed Gust Speed Precip Events Conditions
12:56 AM 55.9 °F 51.1 °F 84% 30.17 in 10.0 mi Calm Calm - N/A   Clear
1:56 AM 54.0 °F 50.0 °F 86% 30.16 in 10.0 mi WNW 4.6 mph - N/A   Clear
2:56 AM 55.0 °F 48.0 °F 77% 30.15 in 10.0 mi WNW 4.6 mph - N/A   Clear
3:56 AM 54.0 °F 46.9 °F 77% 30.16 in 10.0 mi WNW 5.8 mph - N/A   Clear
4:56 AM 55.0 °F 46.9 °F 74% 30.16 in 10.0 mi WNW 3.5 mph - N/A   Clear
5:56 AM 55.9 °F 48.0 °F 75% 30.17 in 10.0 mi WNW 5.8 mph - N/A   Clear
6:56 AM 60.1 °F 51.1 °F 72% 30.19 in 10.0 mi Calm Calm - N/A   Clear
7:56 AM 66.9 °F 51.1 °F 57% 30.21 in 10.0 mi Variable 3.5 mph - N/A   Clear
8:56 AM 70.0 °F 46.0 °F 42% 30.22 in 10.0 mi ENE 9.2 mph - N/A   Clear
9:56 AM 69.1 °F 50.0 °F 51% 30.23 in 10.0 mi SE 11.5 mph - N/A   Clear
10:56 AM 73.9 °F 46.0 °F 37% 30.24 in 10.0 mi Variable 5.8 mph 17.3 mph N/A   Clear
11:56 AM 75.0 °F 42.1 °F 31% 30.24 in 10.0 mi East 10.4 mph 18.4 mph N/A   Clear
12:56 PM 75.9 °F 41.0 °F 29% 30.24 in 10.0 mi ESE 8.1 mph - N/A   Clear
1:56 PM 75.9 °F 35.1 °F 23% 30.24 in 10.0 mi East 12.7 mph 18.4 mph N/A   Clear
2:56 PM 75.0 °F 30.0 °F 19% 30.24 in 10.0 mi East 6.9 mph 21.9 mph N/A   Clear
3:56 PM 75.0 °F 24.1 °F 15% 30.24 in 10.0 mi East 10.4 mph 18.4 mph N/A   Clear
4:56 PM 75.0 °F 27.0 °F 17% 30.22 in 10.0 mi ESE 10.4 mph - N/A   Clear
5:56 PM 72.0 °F 34.0 °F 25% 30.22 in 10.0 mi East 9.2 mph - N/A   Clear
6:56 PM 69.8 °F 30.2 °F 23% 30.22 in 10.0 mi East 10.4 mph - N/A   Clear
7:56 PM 66.0 °F 30.9 °F 27% 30.23 in 10.0 mi East 6.9 mph - N/A   Clear
8:56 PM 63.0 °F 36.0 °F 37% 30.24 in 10.0 mi East 6.9 mph - N/A   Clear
9:56 PM 62.1 °F 36.0 °F 38% 30.25 in 10.0 mi ENE 5.8 mph - N/A   Overcast
10:56 PM 60.1 °F 37.0 °F 42% 30.24 in 10.0 mi ENE 4.6 mph - N/A   Mostly Cloudy
11:56 PM 59.0 °F 37.9 °F 46% 30.22 in 10.0 mi ENE 5.8 mph - N/A   Overcast